SCP
0 0 -0 0 0 0 0 0 0 0 0 0 0 0 0 0 0 0 0 0 0 0 0 0 0 0 0 0 0 0 0 0 1 0 0 0 0 0 0 0 0 0 0 0 0 0 0 0 0 0 0 0 0 0
-0 -0 -0 -0 -0 0 0 0 0 0 0 0 0 0 0 0 0 -0 -0 0 0 0 0 0 0 1 1 0 0 0 0 0 0 0 0 0 0 0 0 0 0 0 0 0 0 0 0 0 0 0 0 0 0 0
0 0 0 -0 0 0 0 0 0 0 0 0 0 0 0 0 0 -0 -0 -0 0 -0 0 0 0 0 0 2 2 0 1 1 1 1 0 0 0 0 0 0 0 0 0 0 0 0 0 0 0 0 0 0 0 0
0 -0 -0 -0 0 0 0 0 0 0 0 0 0 -0 0 0 0 -0 0 0 0 0 0 0 1 0 0 1 2 2 2 2 1 1 0 0 0 0 0 0 0 0 0 0 0 0 0 0 0 0 0 0 0 0
-0 0 0 0 0 0 0 0 0 0 0 0 0 0 0 0 -0 -0 -0 -0 0 0 0 0 0 0 0 0 1 0 1 1 1 0 0 0 0 0 0 0 0 0 0 0 0 0 0 0 0 0 0 0 0 0
-0 -0 -0 -0 0 0 0 0 0 0 0 0 0 0 0 -0 -0 -0 -0 0 0 -0 0 0 0 0 0 0 0 1 1 1 1 0 0 0 0 0 0 0 0 0 0 0 0 0 0 0 0 0 0 0 0 0
-0 -0 -0 -0 -0 -0 -0 0 0 0 0 0 0 0 0 -0 0 0 0 0 0 0 0 0 0 0 0 0 0 0 1 0 0 0 1 0 0 0 0 0 0 0 0 0 0 0 0 0 0 0 0 0 0 0
0 -0 -0 -0 -0 -0 -0 -0 0 0 0 0 0 -0 -0 -0 0 0 0 0 0 0 0 0 0 0 0 0 0 0 1 0 0 0 0 0 0 0 0 0 0 0 0 0 0 0 0 0 0 0 0 0 0 0
0 0 0 0 0 0 0 0 0 0 0 0 0 -0 0 0 0 0 0 0 0 0 0 0 0 0 0 0 0 0 0 0 0 0 0 0 0 0 0 0 0 0 0 0 0 0 0 0 0 0 0 0 0 0
0 0 0 0 0 0 0 0 0 0 0 0 0 0 0 0 0 0 0 0 0 0 0 0 0 0 0 0 0 0 0 0 0 0 0 0 0 0 0 0 0 0 0 0 0 0 0 0 0 0 0 0 0 0
0 0 0 0 0 0 0 0 0 0 0 0 0 0 0 0 0 0 0 0 0 0 0 0 0 0 0 0 0 0 0 0 0 0 0 0 0 0 0 0 0 0 0 0 0 0 0 0 0 0 0 0 0 0
0 0 0 0 0 0 0 0 0 0 0 0 0 0 0 0 0 0 0 0 0 0 0 0 0 0 0 0 0 0 0 0 0 0 0 0 0 0 0 0 0 0 0 0 0 0 0 0 0 0 0 0 0 0
-0 -0 -0 0 0 0 0 -0 0 0 0 0 0 0 0 0 0 0 0 0 0 0 0 0 0 0 0 0 0 0 0 0 0 0 0 0 0 0 0 0 0 0 0 0 0 0 0 0 0 0 0 0 0 0
-0 -0 -0 0 0 0 0 0 0 0 0 0 0 0 0 0 0 0 0 0 0 0 0 0 0 0 0 0 0 0 0 0 0 0 0 0 0 0 0 0 0 0 0 0 0 0 0 0 0 0 0 0 0 0
-0 -0 -0 -0 0 0 0 0 0 0 0 0 0 0 0 0 0 0 0 0 0 0 0 0 0 0 0 0 0 0 0 0 0 0 0 0 0 0 0 0 0 0 0 0 0 0 0 0 0 0 0 0 0 0
0 -0 0 -0 -0 0 0 -0 0 0 0 0 0 0 0 0 0 0 0 0 0 0 0 0 0 0 0 0 0 0 0 0 0 0 0 0 0 0 0 0 0 0 0 0 0 0 0 0 0 0 0 0 0 0
-0 0 -0 0 -0 -0 0 0 0 0 0 0 0 0 0 0 0 0 0 0 0 0 0 0 0 0 0 0 0 0 0 0 0 0 0 0 0 0 0 0 0 0 0 0 0 0 0 0 0 0 0 0 0 0
-0 0 -0 0 0 0 0 0 0 0 0 0 0 0 0 0 0 0 0 0 0 0 0 0 0 0 0 0 0 0 0 0 0 0 0 0 0 0 0 0 0 0 0 0 0 0 0 0 0 0 0 0 0 0
-0 -0 -0 0 -0 0 0 0 0 0 0 0 0 0 0 0 0 0 0 0 0 0 0 0 0 0 0 0 0 0 0 0 0 0 0 0 0 0 0 0 0 0 0 0 0 0 0 0 0 0 0 0 0 0
-0 -0 -0 -0 -0 0 0 0 0 0 0 0 0 0 0 0 0 0 0 0 0 0 0 0 0 0 0 0 0 0 0 0 0 0 0 0 0 0 0 0 0 0 0 0 0 0 0 0 0 0 0 0 0 0
-0 0 0 0 0 0 -0 -0 -0 -0 -0 0 -0 -0 0 0 0 0 0 0 0 0 0 0 0 0 0 0 0 0 0 0 0 0 0 0 0 0 0 0 0 0 0 0 0 0 0 0 0 0 0 0 0 0
-0 -0 -0 0 -0 -0 -0 -0 -0 -0 -0 0 0 0 0 0 0 0 0 0 0 0 0 0 0 0 0 0 0 0 0 0 0 0 0 0 0 0 0 0 0 0 0 0 0 0 0 0 0 0 0 0 0 0
-0 -0 -0 -0 0 0 0 0 0 0 0 0 0 0 0 0 0 0 0 0 0 0 0 0 0 0 0 0 0 0 0 0 0 0 0 0 0 0 0 0 0 0 0 0 0 0 0 0 0 0 0 0 0 0
-0 -0 -0 -0 -0 -0 -0 0 0 0 0 0 0 0 0 0 0 0 0 0 0 0 0 0 0 -0 0 0 0 0 0 0 0 0 0 0 0 0 0 0 0 0 0 0 0 0 0 0 0 0 0 0 0 0
0 0 0 0 0 0 0 0 0 0 0 0 0 0 0 0 0 0 0 0 0 0 0 0 0 0 0 0 0 0 0 0 0 0 0 0 0 0 0 0 0 0 0 0 0 0 0 0 0 0 0 0 0 0
0 0 0 0 0 0 0 0 0 0 0 0 0 0 0 0 0 0 0 0 0 0 0 0 0 0 0 0 0 0 0 0 0 0 0 0 0 0 0 0 0 0 0 0 0 0 0 0 0 0 0 0 0 0
0 0 0 0 0 0 0 0 0 0 0 0 0 0 0 0 0 0 0 0 0 0 0 0 0 0 0 0 0 0 0 0 0 0 0 0 0 0 0 0 0 0 0 0 0 0 0 0 0 0 0 0 0 0
0 0 0 0 0 0 0 0 0 0 0 0 0 0 0 0 0 0 0 0 0 0 0 0 0 0 0 0 0 0 0 0 0 0 0 0 0 0 0 0 0 0 0 0 0 0 0 0 0 0 0 0 0 0
0 0 0 0 0 0 0 0 0 0 0 0 0 0 0 0 0 0 0 0 0 0 0 0 0 0 0 0 0 0 0 0 0 0 0 0 0 0 0 0 0 0 0 0 0 0 0 0 0 0 0 0 0 0
0 -0 0 0 0 0 0 0 0 0 0 0 0 0 0 0 0 0 0 0 0 0 0 0 0 0 0 0 0 0 0 0 0 0 0 0 0 0 0 0 0 0 0 0 0 0 0 0 0 0 0 0 0 0
-0 -0 0 0 0 0 0 0 0 0 0 0 0 0 0 0 0 0 0 0 0 0 0 0 0 0 0 0 0 0 0 0 0 0 0 0 0 0 0 0 0 0 0 0 0 0 0 0 0 0 0 0 0 0
0 0 0 0 0 0 0 0 0 0 0 0 0 0 0 0 0 0 0 0 0 0 0 0 0 0 0 0 0 0 0 0 0 0 0 0 0 0 0 0 0 0 0 0 0 0 0 0 0 0 0 0 0 0
0 0 0 0 0 0 0 0 0 0 0 0 0 0 0 0 0 0 0 0 0 0 0 0 0 0 0 0 0 0 0 0 0 0 0 0 0 0 0 0 0 0 0 0 0 0 0 0 0 0 0 0 0 0
Wind_Speed_500mb
86 85 74 69 64 57 56 54 46 63 79 83 83 85 73 69 86 89 99 58 23 14 32 51 65 46 38 40 12 24 3 10 7 7 7 6 6 9 8 14 14 12 11 6 7 5 11 15 8 13 12 20 17 18
68 68 65 62 60 57 54 47 44 52 59 63 72 71 68 71 80 95 80 84 52 35 21 20 45 58 55 63 47 59 29 20 18 8 5 7 4 4 6 5 6 3 12 11 13 11 17 9 24 24 20 17 14 17
64 65 64 60 58 55 55 48 49 53 58 67 66 70 67 79 78 95 103 65 47 29 41 15 37 42 50 53 54 20 27 19 15 18 13 5 7 8 6 8 6 3 9 7 9 5 11 22 13 35 31 30 21 21
53 51 51 51 52 55 51 51 49 52 57 65 68 69 55 71 78 83 79 64 35 4 3 11 28 37 43 43 50 27 37 31 41 34 13 7 7 12 7 8 9 11 11 11 4 6 37 39 36 31 31 26 21 18
49 52 55 57 57 59 54 51 55 61 64 63 68 60 66 75 73 66 66 73 50 34 8 8 30 23 27 41 56 21 36 51 34 10 8 5 11 9 4 6 1 10 11 8 8 7 33 20 29 22 26 26 24 18
46 49 49 52 52 47 48 53 51 56 54 55 63 70 74 61 61 52 23 98 91 70 17 5 15 17 18 25 28 26 33 24 14 12 5 7 7 9 7 6 2 28 29 28 15 22 38 36 27 21 23 21 17 15
52 56 56 53 54 52 52 50 54 55 54 52 61 64 59 61 76 50 9 9 19 30 11 7 6 12 21 25 23 22 23 12 10 10 6 9 6 10 6 7 22 33 31 28 33 44 33 16 24 19 20 24 23 27
52 58 61 56 57 57 52 49 61 64 62 63 60 59 67 57 49 11 18 6 28 20 17 7 3 7 11 9 9 8 9 11 14 8 6 8 7 5 4 19 38 34 34 23 20 19 43 45 29 26 29 29 34 38
48 50 46 46 46 50 60 65 60 60 63 66 65 67 61 35 29 36 26 39 31 22 12 7 7 5 4 10 8 8 8 6 5 4 2 8 3 3 5 32 30 27 18 47 44 41 34 26 32 35 38 41 44 37
56 58 60 79 87 82 77 69 68 71 70 63 65 28 20 23 25 11 12 14 19 16 10 6 6 3 7 6 6 6 9 5 4 4 6 5 3 21 31 34 27 18 40 48 47 34 30 37 43 38 41 40 35 27
81 59 55 66 74 72 76 79 79 81 81 41 10 11 38 19 13 15 11 11 4 7 10 9 14 1 6 6 5 4 4 2 5 6 8 1 2 10 27 35 23 23 29 26 19 25 29 49 51 45 37 30 24 20
78 77 75 64 69 74 78 80 83 78 25 15 37 41 21 12 16 12 6 6 11 4 8 1 14 6 8 3 7 4 5 4 3 2 6 5 3 41 39 33 25 22 31 38 37 50 47 43 36 31 30 27 23 21
77 75 70 78 87 92 99 73 44 61 74 57 15 12 13 15 14 7 3 3 5 10 6 6 7 5 6 11 11 5 6 2 11 4 2 2 24 34 32 36 36 36 42 48 49 46 40 36 31 25 28 24 22 21
49 57 65 73 58 51 60 84 62 53 27 16 13 12 8 7 7 5 6 5 4 6 10 22 8 7 9 8 2 8 2 3 5 8 8 5 30 37 41 44 51 48 38 37 37 36 34 33 31 28 23 20 18 16
49 43 41 47 46 42 37 35 19 22 17 16 15 9 7 5 12 6 6 7 8 7 9 8 8 8 4 7 3 6 6 6 3 3 2 19 31 41 42 48 51 47 37 36 35 35 33 30 27 26 22 18 13 7
50 47 46 37 29 23 22 24 25 32 17 15 18 8 9 6 9 14 18 13 10 9 7 4 5 7 7 4 5 7 4 6 4 3 9 27 37 37 45 48 44 37 31 31 30 29 27 24 22 20 18 12 7 1
53 59 44 36 27 20 21 19 24 23 16 12 12 28 20 14 13 15 16 15 12 6 3 6 9 4 1 5 6 7 6 4 6 9 17 30 41 32 36 40 36 32 31 26 25 24 22 22 21 16 11 6 1 3
53 39 42 38 42 47 55 39 17 17 17 22 11 25 36 30 27 28 29 27 7 8 7 5 5 8 9 7 5 8 14 14 13 13 15 24 34 26 31 37 35 32 27 19 23 24 25 23 22 19 13 16 14 11
32 25 19 18 17 17 15 17 17 13 16 12 23 27 21 25 36 39 32 23 32 28 13 12 10 7 7 12 11 23 26 12 14 22 18 22 24 26 30 32 30 28 22 20 27 31 31 32 26 17 13 9 11 14
37 27 19 12 10 17 16 15 16 16 9 10 18 30 18 19 39 49 45 41 36 18 18 10 8 17 15 22 23 24 27 9 6 15 16 15 17 20 27 32 33 30 31 34 33 26 25 23 15 7 6 8 12 16
32 32 27 44 59 33 19 13 15 13 14 12 17 18 16 38 45 40 33 40 40 17 13 26 27 25 19 19 21 20 23 21 8 7 11 24 22 25 26 25 26 25 23 23 27 24 14 7 3 6 12 15 17 14
33 27 35 33 21 17 19 24 13 11 11 8 13 13 11 11 16 26 29 30 15 23 20 22 23 22 26 31 25 20 19 18 22 27 32 31 31 32 30 27 25 27 21 15 8 5 2 8 11 13 15 17 16 15
23 26 24 24 16 16 9 14 12 10 7 5 7 7 7 7 13 13 14 14 14 31 26 16 17 20 20 18 23 29 26 20 24 24 23 24 24 22 19 18 16 18 18 15 10 11 12 14 17 17 21 21 17 17
24 18 18 16 21 8 9 12 10 9 9 7 6 6 6 13 12 13 7 10 15 18 28 25 19 25 25 29 34 31 27 24 29 32 29 24 27 27 22 21 18 17 14 10 7 10 15 19 20 21 22 20 17 18
16 23 15 12 17 10 9 8 10 9 7 8 7 6 5 8 6 6 5 10 20 15 29 24 16 20 25 20 20 23 23 21 19 23 25 21 20 17 17 14 12 10 12 14 16 17 18 21 23 23 21 18 18 20
15 25 12 13 11 9 8 7 7 5 3 5 5 3 4 4 8 8 6 13 15 14 15 21 18 17 17 14 16 18 16 13 14 14 17 12 10 8 6 4 12 17 25 27 27 25 24 25 25 25 22 18 16 22
12 11 15 14 7 9 10 9 9 10 10 8 5 8 5 6 7 7 8 14 9 11 10 8 8 11 15 18 19 18 16 15 14 16 15 13 14 13 12 18 23 25 26 26 26 27 27 27 28 27 26 23 24 29
13 15 9 17 18 21 7 8 9 10 5 12 9 9 6 8 6 7 10 7 10 14 15 16 17 14 10 9 9 9 8 7 13 16 16 17 21 24 31 37 34 34 35 34 32 32 31 30 31 32 29 27 25 20
13 13 9 16 12 13 17 11 8 9 13 13 7 6 8 11 16 13 13 3 11 19 10 12 14 15 15 17 14 14 13 11 6 3 4 6 18 28 33 34 34 33 36 33 31 29 25 26 28 34 31 22 23 22
14 19 5 11 9 7 12 14 14 13 19 15 13 20 23 18 12 6 5 5 11 10 9 4 1 4 4 5 14 15 14 17 21 23 22 24 28 30 30 31 36 39 38 37 35 33 31 29 29 26 24 20 21 30
8 12 8 11 9 8 7 9 10 13 12 16 19 19 20 16 18 17 15 15 10 13 7 12 10 9 6 7 11 14 22 27 32 31 30 33 32 32 33 36 38 37 33 30 34 38 36 31 27 29 33 31 28 33
12 11 9 6 8 9 10 6 2 4 11 13 12 13 14 11 9 8 11 6 10 6 3 6 8 10 13 16 21 26 27 29 33 36 40 40 38 38 38 33 31 33 34 35 36 38 35 32 26 26 33 39 41 41
9 13 14 9 6 5 9 7 6 8 12 8 9 12 11 9 9 5 10 12 11 13 13 13 14 15 20 26 29 31 32 34 37 41 42 42 43 41 38 40 42 40 36 33 32 31 28 24 23 27 36 41 44 40
Wind_Direction_500mb
161 169 172 174 177 180 182 185 180 175 177 180 181 186 193 197 200 210 213 207 217 290 228 207 185 192 192 159 143 151 171 265 67 85 114 188 121 230 103 168 168 161 143 186 91 102 279 185 85 135 184 94 69 46
160 167 172 177 177 175 177 177 172 169 174 180 183 188 196 193 196 208 220 213 220 258 281 218 196 199 198 174 147 154 211 182 158 99 61 89 52 49 120 201 195 104 173 176 162 210 228 142 120 132 122 110 84 77
157 164 169 171 174 174 174 172 175 175 179 180 184 189 189 193 192 204 211 217 235 249 267 247 144 135 157 169 165 146 182 148 140 129 142 133 130 130 136 244 115 83 133 108 77 269 187 195 133 117 113 100 94 86
155 159 165 169 172 174 175 179 180 180 180 179 188 189 199 195 191 199 215 220 219 237 10 225 125 125 129 154 153 191 163 155 146 137 95 124 140 188 203 188 136 198 125 158 225 287 90 72 88 100 108 111 100 106
159 163 168 170 172 177 182 183 179 178 189 192 191 193 185 182 190 204 221 197 207 217 226 73 101 77 127 136 154 153 146 148 138 91 85 184 161 104 340 74 283 171 173 148 207 126 109 96 101 125 121 113 109 129
169 170 174 180 182 182 189 185 182 184 188 197 200 186 183 182 189 194 209 225 224 221 301 82 60 55 102 136 144 134 136 134 106 119 127 99 132 124 113 165 16 118 110 140 131 110 128 131 128 135 136 126 130 121
186 186 189 191 181 182 189 196 184 193 185 177 174 176 175 176 187 184 193 145 141 177 176 55 8 38 96 120 121 133 145 114 106 98 81 128 102 107 112 143 141 112 115 115 127 129 115 141 126 130 131 120 119 105
167 184 190 190 189 186 181 186 175 168 170 165 168 157 167 177 188 272 50 74 115 99 83 92 314 35 78 64 70 62 96 88 51 95 96 100 76 62 81 115 124 123 120 108 113 158 145 138 132 120 117 114 106 99
118 120 137 149 156 160 165 172 167 158 155 144 140 149 158 170 191 201 95 75 82 95 104 87 120 186 91 65 57 62 57 67 68 98 115 106 334 96 127 125 123 132 147 130 122 128 138 135 125 119 116 110 113 120
105 125 124 127 128 129 133 134 134 141 139 134 144 136 167 171 124 87 59 37 39 45 64 94 78 64 90 84 55 69 24 139 109 229 106 85 88 100 99 113 110 140 148 151 133 126 136 127 124 130 136 135 133 129
89 111 126 138 144 146 143 143 141 136 133 140 109 57 115 96 43 45 54 56 65 51 37 70 90 195 87 113 137 104 158 27 89 254 121 230 152 149 130 109 121 123 146 163 150 146 138 141 146 140 135 136 135 134
90 89 93 118 135 135 132 134 133 133 132 121 110 102 83 54 40 63 17 355 41 70 28 351 78 63 66 97 100 58 96 44 110 151 73 143 67 130 135 122 119 125 129 130 137 132 141 145 145 138 137 136 132 124
77 87 102 103 120 124 126 128 130 129 123 113 81 58 30 4 47 50 71 53 59 10 9 86 56 68 71 67 66 82 78 178 120 66 207 284 129 136 139 135 127 132 137 136 138 143 145 140 138 145 143 138 128 125
94 97 91 91 102 120 125 131 137 140 129 62 56 51 41 32 49 20 21 36 39 43 83 99 62 69 68 53 79 93 201 78 148 168 213 156 142 146 146 143 141 141 147 144 140 141 142 147 144 142 144 137 141 137
101 116 122 104 97 97 99 110 130 151 69 67 48 57 60 99 69 70 79 88 74 68 107 124 96 105 53 87 62 123 129 143 163 162 74 145 165 155 149 150 149 150 148 144 148 151 147 143 141 141 144 149 148 134
106 115 96 106 129 130 136 81 84 72 61 55 48 60 28 61 27 39 41 42 55 81 94 74 101 74 51 71 58 31 102 56 37 30 146 157 152 144 150 153 155 158 152 154 156 153 148 147 149 148 149 153 149 102
105 85 88 98 105 141 153 137 46 50 52 47 33 49 58 54 36 42 36 21 36 67 47 24 54 60 313 75 58 22 35 358 25 109 152 162 156 154 160 156 150 162 161 160 170 165 161 152 153 154 147 131 100 349
84 97 100 86 99 109 87 64 78 64 59 57 60 53 63 58 41 38 32 37 57 74 54 74 83 47 31 43 45 0 24 73 88 106 143 162 166 154 155 156 170 176 175 181 182 171 154 147 155 170 178 155 192 257
78 78 79 69 73 93 69 53 51 83 66 69 67 69 60 47 43 46 48 55 65 71 73 56 47 32 46 34 358 4 18 36 109 113 143 164 162 163 170 181 188 190 195 183 161 158 162 174 187 196 206 203 251 294
68 69 73 76 81 79 72 54 61 82 71 85 72 62 62 39 49 51 52 59 64 54 47 43 44 37 45 31 32 29 22 36 161 149 149 142 160 179 179 181 176 177 169 163 164 180 181 183 183 182 255 296 314 314
72 73 77 79 66 68 76 59 64 87 93 82 87 88 61 49 45 42 42 46 52 34 64 47 70 53 44 50 55 47 44 38 52 170 148 135 145 149 141 139 150 152 153 153 150 141 147 137 74 325 311 316 320 311
59 69 61 51 68 69 65 45 78 80 73 72 53 57 58 27 28 41 49 50 56 28 37 49 49 46 44 38 40 45 50 67 85 119 140 143 127 120 110 112 126 116 110 113 125 127 33 360 337 319 304 306 311 296
60 53 52 42 71 59 48 37 62 42 70 32 47 56 39 52 22 54 75 60 60 34 37 57 68 56 44 56 64 60 61 73 83 87 97 105 110 111 116 119 119 116 104 83 59 22 354 324 317 307 301 310 310 296
55 52 37 42 48 72 60 34 46 58 53 45 54 65 38 6 33 69 70 70 46 52 50 50 90 52 50 65 64 64 60 67 85 86 82 90 97 93 94 94 85 71 60 40 6 321 311 310 311 311 315 320 310 305
64 20 33 29 32 54 53 33 21 51 54 16 60 39 16 353 69 71 64 98 48 46 50 63 56 81 75 60 60 68 71 68 81 94 93 81 70 75 72 67 58 44 12 352 341 329 317 313 314 317 321 324 320 320
67 28 40 27 28 46 37 70 63 55 53 79 77 63 329 29 62 57 55 58 47 38 49 55 58 33 49 51 52 65 64 58 44 76 86 86 85 84 89 20 344 340 335 336 336 333 326 319 314 313 316 318 319 309
61 55 33 42 53 103 95 60 62 58 46 45 19 345 357 72 73 85 86 35 38 20 42 61 70 74 71 57 50 60 66 59 54 60 59 47 35 27 17 3 346 341 336 332 330 324 321 319 319 321 313 300 292 294
62 52 36 42 50 55 71 48 32 28 31 354 337 44 66 36 57 56 71 47 20 17 28 43 49 47 44 30 16 2 4 61 56 26 6 357 351 350 348 344 339 336 337 336 332 328 328 326 327 325 324 321 330 328
56 55 63 51 74 59 32 30 81 65 1 349 18 63 84 78 67 83 69 93 106 128 91 60 53 28 25 28 44 62 66 62 51 18 320 317 297 314 321 324 325 331 327 323 322 317 316 317 309 308 314 315 326 331
21 21 77 57 47 55 40 41 84 77 70 79 102 103 93 101 94 119 138 82 58 43 41 38 31 215 115 1 356 3 15 8 358 354 345 336 328 327 325 319 320 321 321 321 320 320 321 313 310 320 316 298 295 293
24 24 54 67 75 65 70 106 102 108 79 62 92 113 133 125 93 77 61 59 85 104 48 25 44 55 53 22 12 356 340 340 336 343 340 334 329 325 320 316 315 315 312 313 312 315 317 320 319 314 317 313 301 298
41 33 20 62 96 67 84 76 79 66 128 90 93 95 119 106 83 73 56 28 10 62 52 347 355 25 10 0 350 345 337 332 334 333 326 323 323 322 322 321 318 314 313 311 308 308 310 307 311 314 308 307 310 306
105 76 60 58 70 68 30 349 158 95 70 76 64 60 55 84 87 79 356 9 26 23 9 357 349 350 340 340 336 330 327 327 322 319 319 318 317 322 324 323 324 323 319 316 317 318 316 307 302 302 300 304 310 312
Wind_Speed_850mb
86 85 74 69 64 57 56 54 46 63 79 83 83 85 73 69 86 89 99 58 23 14 32 51 65 46 38 40 12 24 3 10 7 7 7 6 6 9 8 14 14 12 11 6 7 5 11 15 8 13 12 20 17 18
68 68 65 62 60 57 54 47 44 52 59 63 72 71 68 71 80 95 80 84 52 35 21 20 45 58 55 63 47 59 29 20 18 8 5 7 4 4 6 5 6 3 12 11 13 11 17 9 24 24 20 17 14 17
64 65 64 60 58 55 55 48 49 53 58 67 66 70 67 79 78 95 103 65 47 29 41 15 37 42 50 53 54 20 27 19 15 18 13 5 7 8 6 8 6 3 9 7 9 5 11 22 13 35 31 30 21 21
53 51 51 51 52 55 51 51 49 52 57 65 68 69 55 71 78 83 79 64 35 4 3 11 28 37 43 43 50 27 37 31 41 34 13 7 7 12 7 8 9 11 11 11 4 6 37 39 36 31 31 26 21 18
49 52 55 57 57 59 54 51 55 61 64 63 68 60 66 75 73 66 66 73 50 34 8 8 30 23 27 41 56 21 36 51 34 10 8 5 11 9 4 6 1 10 11 8 8 7 33 20 29 22 26 26 24 18
46 49 49 52 52 47 48 53 51 56 54 55 63 70 74 61 61 52 23 98 91 70 17 5 15 17 18 25 28 26 33 24 14 12 5 7 7 9 7 6 2 28 29 28 15 22 38 36 27 21 23 21 17 15
52 56 56 53 54 52 52 50 54 55 54 52 61 64 59 61 76 50 9 9 19 30 11 7 6 12 21 25 23 22 23 12 10 10 6 9 6 10 6 7 22 33 31 28 33 44 33 16 24 19 20 24 23 27
52 58 61 56 57 57 52 49 61 64 62 63 60 59 67 57 49 11 18 6 28 20 17 7 3 7 11 9 9 8 9 11 14 8 6 8 7 5 4 19 38 34 34 23 20 19 43 45 29 26 29 29 34 38
48 50 46 46 46 50 60 65 60 60 63 66 65 67 61 35 29 36 26 39 31 22 12 7 7 5 4 10 8 8 8 6 5 4 2 8 3 3 5 32 30 27 18 47 44 41 34 26 32 35 38 41 44 37
56 58 60 79 87 82 77 69 68 71 70 63 65 28 20 23 25 11 12 14 19 16 10 6 6 3 7 6 6 6 9 5 4 4 6 5 3 21 31 34 27 18 40 48 47 34 30 37 43 38 41 40 35 27
81 59 55 66 74 72 76 79 79 81 81 41 10 11 38 19 13 15 11 11 4 7 10 9 14 1 6 6 5 4 4 2 5 6 8 1 2 10 27 35 23 23 29 26 19 25 29 49 51 45 37 30 24 20
78 77 75 64 69 74 78 80 83 78 25 15 37 41 21 12 16 12 6 6 11 4 8 1 14 6 8 3 7 4 5 4 3 2 6 5 3 41 39 33 25 22 31 38 37 50 47 43 36 31 30 27 23 21
77 75 70 78 87 92 99 73 44 61 74 57 15 12 13 15 14 7 3 3 5 10 6 6 7 5 6 11 11 5 6 2 11 4 2 2 24 34 32 36 36 36 42 48 49 46 40 36 31 25 28 24 22 21
49 57 65 73 58 51 60 84 62 53 27 16 13 12 8 7 7 5 6 5 4 6 10 22 8 7 9 8 2 8 2 3 5 8 8 5 30 37 41 44 51 48 38 37 37 36 34 33 31 28 23 20 18 16
49 43 41 47 46 42 37 35 19 22 17 16 15 9 7 5 12 6 6 7 8 7 9 8 8 8 4 7 3 6 6 6 3 3 2 19 31 41 42 48 51 47 37 36 35 35 33 30 27 26 22 18 13 7
50 47 46 37 29 23 22 24 25 32 17 15 18 8 9 6 9 14 18 13 10 9 7 4 5 7 7 4 5 7 4 6 4 3 9 27 37 37 45 48 44 37 31 31 30 29 27 24 22 20 18 12 7 1
53 59 44 36 27 20 21 19 24 23 16 12 12 28 20 14 13 15 16 15 12 6 3 6 9 4 1 5 6 7 6 4 6 9 17 30 41 32 36 40 36 32 31 26 25 24 22 22 21 16 11 6 1 3
53 39 42 38 42 47 55 39 17 17 17 22 11 25 36 30 27 28 29 27 7 8 7 5 5 8 9 7 5 8 14 14 13 13 15 24 34 26 31 37 35 32 27 19 23 24 25 23 22 19 13 16 14 11
32 25 19 18 17 17 15 17 17 13 16 12 23 27 21 25 36 39 32 23 32 28 13 12 10 7 7 12 11 23 26 12 14 22 18 22 24 26 30 32 30 28 22 20 27 31 31 32 26 17 13 9 11 14
37 27 19 12 10 17 16 15 16 16 9 10 18 30 18 19 39 49 45 41 36 18 18 10 8 17 15 22 23 24 27 9 6 15 16 15 17 20 27 32 33 30 31 34 33 26 25 23 15 7 6 8 12 16
32 32 27 44 59 33 19 13 15 13 14 12 17 18 16 38 45 40 33 40 40 17 13 26 27 25 19 19 21 20 23 21 8 7 11 24 22 25 26 25 26 25 23 23 27 24 14 7 3 6 12 15 17 14
33 27 35 33 21 17 19 24 13 11 11 8 13 13 11 11 16 26 29 30 15 23 20 22 23 22 26 31 25 20 19 18 22 27 32 31 31 32 30 27 25 27 21 15 8 5 2 8 11 13 15 17 16 15
23 26 24 24 16 16 9 14 12 10 7 5 7 7 7 7 13 13 14 14 14 31 26 16 17 20 20 18 23 29 26 20 24 24 23 24 24 22 19 18 16 18 18 15 10 11 12 14 17 17 21 21 17 17
24 18 18 16 21 8 9 12 10 9 9 7 6 6 6 13 12 13 7 10 15 18 28 25 19 25 25 29 34 31 27 24 29 32 29 24 27 27 22 21 18 17 14 10 7 10 15 19 20 21 22 20 17 18
16 23 15 12 17 10 9 8 10 9 7 8 7 6 5 8 6 6 5 10 20 15 29 24 16 20 25 20 20 23 23 21 19 23 25 21 20 17 17 14 12 10 12 14 16 17 18 21 23 23 21 18 18 20
15 25 12 13 11 9 8 7 7 5 3 5 5 3 4 4 8 8 6 13 15 14 15 21 18 17 17 14 16 18 16 13 14 14 17 12 10 8 6 4 12 17 25 27 27 25 24 25 25 25 22 18 16 22
12 11 15 14 7 9 10 9 9 10 10 8 5 8 5 6 7 7 8 14 9 11 10 8 8 11 15 18 19 18 16 15 14 16 15 13 14 13 12 18 23 25 26 26 26 27 27 27 28 27 26 23 24 29
13 15 9 17 18 21 7 8 9 10 5 12 9 9 6 8 6 7 10 7 10 14 15 16 17 14 10 9 9 9 8 7 13 16 16 17 21 24 31 37 34 34 35 34 32 32 31 30 31 32 29 27 25 20
13 13 9 16 12 13 17 11 8 9 13 13 7 6 8 11 16 13 13 3 11 19 10 12 14 15 15 17 14 14 13 11 6 3 4 6 18 28 33 34 34 33 36 33 31 29 25 26 28 34 31 22 23 22
14 19 5 11 9 7 12 14 14 13 19 15 13 20 23 18 12 6 5 5 11 10 9 4 1 4 4 5 14 15 14 17 21 23 22 24 28 30 30 31 36 39 38 37 35 33 31 29 29 26 24 20 21 30
8 12 8 11 9 8 7 9 10 13 12 16 19 19 20 16 18 17 15 15 10 13 7 12 10 9 6 7 11 14 22 27 32 31 30 33 32 32 33 36 38 37 33 30 34 38 36 31 27 29 33 31 28 33
12 11 9 6 8 9 10 6 2 4 11 13 12 13 14 11 9 8 11 6 10 6 3 6 8 10 13 16 21 26 27 29 33 36 40 40 38 38 38 33 31 33 34 35 36 38 35 32 26 26 33 39 41 41
9 13 14 9 6 5 9 7 6 8 12 8 9 12 11 9 9 5 10 12 11 13 13 13 14 15 20 26 29 31 32 34 37 41 42 42 43 41 38 40 42 40 36 33 32 31 28 24 23 27 36 41 44 40
Wind_Direction_850mb
161 169 172 174 177 180 182 185 180 175 177 180 181 186 193 197 200 210 213 207 217 290 228 207 185 192 192 159 143 151 171 265 67 85 114 188 121 230 103 168 168 161 143 186 91 102 279 185 85 135 184 94 69 46
160 167 172 177 177 175 177 177 172 169 174 180 183 188 196 193 196 208 220 213 220 258 281 218 196 199 198 174 147 154 211 182 158 99 61 89 52 49 120 201 195 104 173 176 162 210 228 142 120 132 122 110 84 77
157 164 169 171 174 174 174 172 175 175 179 180 184 189 189 193 192 204 211 217 235 249 267 247 144 135 157 169 165 146 182 148 140 129 142 133 130 130 136 244 115 83 133 108 77 269 187 195 133 117 113 100 94 86
155 159 165 169 172 174 175 179 180 180 180 179 188 189 199 195 191 199 215 220 219 237 10 225 125 125 129 154 153 191 163 155 146 137 95 124 140 188 203 188 136 198 125 158 225 287 90 72 88 100 108 111 100 106
159 163 168 170 172 177 182 183 179 178 189 192 191 193 185 182 190 204 221 197 207 217 226 73 101 77 127 136 154 153 146 148 138 91 85 184 161 104 340 74 283 171 173 148 207 126 109 96 101 125 121 113 109 129
169 170 174 180 182 182 189 185 182 184 188 197 200 186 183 182 189 194 209 225 224 221 301 82 60 55 102 136 144 134 136 134 106 119 127 99 132 124 113 165 16 118 110 140 131 110 128 131 128 135 136 126 130 121
186 186 189 191 181 182 189 196 184 193 185 177 174 176 175 176 187 184 193 145 141 177 176 55 8 38 96 120 121 133 145 114 106 98 81 128 102 107 112 143 141 112 115 115 127 129 115 141 126 130 131 120 119 105
167 184 190 190 189 186 181 186 175 168 170 165 168 157 167 177 188 272 50 74 115 99 83 92 314 35 78 64 70 62 96 88 51 95 96 100 76 62 81 115 124 123 120 108 113 158 145 138 132 120 117 114 106 99
118 120 137 149 156 160 165 172 167 158 155 144 140 149 158 170 191 201 95 75 82 95 104 87 120 186 91 65 57 62 57 67 68 98 115 106 334 96 127 125 123 132 147 130 122 128 138 135 125 119 116 110 113 120
105 125 124 127 128 129 133 134 134 141 139 134 144 136 167 171 124 87 59 37 39 45 64 94 78 64 90 84 55 69 24 139 109 229 106 85 88 100 99 113 110 140 148 151 133 126 136 127 124 130 136 135 133 129
89 111 126 138 144 146 143 143 141 136 133 140 109 57 115 96 43 45 54 56 65 51 37 70 90 195 87 113 137 104 158 27 89 254 121 230 152 149 130 109 121 123 146 163 150 146 138 141 146 140 135 136 135 134
90 89 93 118 135 135 132 134 133 133 132 121 110 102 83 54 40 63 17 355 41 70 28 351 78 63 66 97 100 58 96 44 110 151 73 143 67 130 135 122 119 125 129 130 137 132 141 145 145 138 137 136 132 124
77 87 102 103 120 124 126 128 130 129 123 113 81 58 30 4 47 50 71 53 59 10 9 86 56 68 71 67 66 82 78 178 120 66 207 284 129 136 139 135 127 132 137 136 138 143 145 140 138 145 143 138 128 125
94 97 91 91 102 120 125 131 137 140 129 62 56 51 41 32 49 20 21 36 39 43 83 99 62 69 68 53 79 93 201 78 148 168 213 156 142 146 146 143 141 141 147 144 140 141 142 147 144 142 144 137 141 137
101 116 122 104 97 97 99 110 130 151 69 67 48 57 60 99 69 70 79 88 74 68 107 124 96 105 53 87 62 123 129 143 163 162 74 145 165 155 149 150 149 150 148 144 148 151 147 143 141 141 144 149 148 134
106 115 96 106 129 130 136 81 84 72 61 55 48 60 28 61 27 39 41 42 55 81 94 74 101 74 51 71 58 31 102 56 37 30 146 157 152 144 150 153 155 158 152 154 156 153 148 147 149 148 149 153 149 102
105 85 88 98 105 141 153 137 46 50 52 47 33 49 58 54 36 42 36 21 36 67 47 24 54 60 313 75 58 22 35 358 25 109 152 162 156 154 160 156 150 162 161 160 170 165 161 152 153 154 147 131 100 349
84 97 100 86 99 109 87 64 78 64 59 57 60 53 63 58 41 38 32 37 57 74 54 74 83 47 31 43 45 0 24 73 88 106 143 162 166 154 155 156 170 176 175 181 182 171 154 147 155 170 178 155 192 257
78 78 79 69 73 93 69 53 51 83 66 69 67 69 60 47 43 46 48 55 65 71 73 56 47 32 46 34 358 4 18 36 109 113 143 164 162 163 170 181 188 190 195 183 161 158 162 174 187 196 206 203 251 294
68 69 73 76 81 79 72 54 61 82 71 85 72 62 62 39 49 51 52 59 64 54 47 43 44 37 45 31 32 29 22 36 161 149 149 142 160 179 179 181 176 177 169 163 164 180 181 183 183 182 255 296 314 314
72 73 77 79 66 68 76 59 64 87 93 82 87 88 61 49 45 42 42 46 52 34 64 47 70 53 44 50 55 47 44 38 52 170 148 135 145 149 141 139 150 152 153 153 150 141 147 137 74 325 311 316 320 311
59 69 61 51 68 69 65 45 78 80 73 72 53 57 58 27 28 41 49 50 56 28 37 49 49 46 44 38 40 45 50 67 85 119 140 143 127 120 110 112 126 116 110 113 125 127 33 360 337 319 304 306 311 296
60 53 52 42 71 59 48 37 62 42 70 32 47 56 39 52 22 54 75 60 60 34 37 57 68 56 44 56 64 60 61 73 83 87 97 105 110 111 116 119 119 116 104 83 59 22 354 324 317 307 301 310 310 296
55 52 37 42 48 72 60 34 46 58 53 45 54 65 38 6 33 69 70 70 46 52 50 50 90 52 50 65 64 64 60 67 85 86 82 90 97 93 94 94 85 71 60 40 6 321 311 310 311 311 315 320 310 305
64 20 33 29 32 54 53 33 21 51 54 16 60 39 16 353 69 71 64 98 48 46 50 63 56 81 75 60 60 68 71 68 81 94 93 81 70 75 72 67 58 44 12 352 341 329 317 313 314 317 321 324 320 320
67 28 40 27 28 46 37 70 63 55 53 79 77 63 329 29 62 57 55 58 47 38 49 55 58 33 49 51 52 65 64 58 44 76 86 86 85 84 89 20 344 340 335 336 336 333 326 319 314 313 316 318 319 309
61 55 33 42 53 103 95 60 62 58 46 45 19 345 357 72 73 85 86 35 38 20 42 61 70 74 71 57 50 60 66 59 54 60 59 47 35 27 17 3 346 341 336 332 330 324 321 319 319 321 313 300 292 294
62 52 36 42 50 55 71 48 32 28 31 354 337 44 66 36 57 56 71 47 20 17 28 43 49 47 44 30 16 2 4 61 56 26 6 357 351 350 348 344 339 336 337 336 332 328 328 326 327 325 324 321 330 328
56 55 63 51 74 59 32 30 81 65 1 349 18 63 84 78 67 83 69 93 106 128 91 60 53 28 25 28 44 62 66 62 51 18 320 317 297 314 321 324 325 331 327 323 322 317 316 317 309 308 314 315 326 331
21 21 77 57 47 55 40 41 84 77 70 79 102 103 93 101 94 119 138 82 58 43 41 38 31 215 115 1 356 3 15 8 358 354 345 336 328 327 325 319 320 321 321 321 320 320 321 313 310 320 316 298 295 293
24 24 54 67 75 65 70 106 102 108 79 62 92 113 133 125 93 77 61 59 85 104 48 25 44 55 53 22 12 356 340 340 336 343 340 334 329 325 320 316 315 315 312 313 312 315 317 320 319 314 317 313 301 298
41 33 20 62 96 67 84 76 79 66 128 90 93 95 119 106 83 73 56 28 10 62 52 347 355 25 10 0 350 345 337 332 334 333 326 323 323 322 322 321 318 314 313 311 308 308 310 307 311 314 308 307 310 306
105 76 60 58 70 68 30 349 158 95 70 76 64 60 55 84 87 79 356 9 26 23 9 357 349 350 340 340 336 330 327 327 322 319 319 318 317 322 324 323 324 323 319 316 317 318 316 307 302 302 300 304 310 312